Location: Pontbriand
(46.1542°N, 71.2542°W)
Time: 16:32:25
(UTC+00:00)

Envisat - Pass Details

Date: 09 December 2021
Orbit: 764 x 766 km, 98.2° (Epoch: 16 January)

Event Time Altitude Azimuth Distance (km) Brightness Sun altitude
Rises 10:45:18 0° 5° (N) 3,244 6.1 -15.0°
Reaches altitude 10° 10:47:47 10° 356° (N) 2,313 5.3 -14.6°
Maximum altitude 10:52:18 33° 294° (WNW) 1,277 3.6 -13.8°
Drops below altitude 10° 10:56:46 10° 232° (SW) 2,298 5.2 -13.1°
Sets 10:59:15 0° 223° (SW) 3,219 6.0 -12.7°
